Regional Weather Roundup
Issued by NWS Kansas City/Pleasant Hill, MO

Home | Current Version | Previous Version | Graphics & Text | Print | Product List | Glossary Off
Versions: 1 2 3 4 5 6 7 8 9 10 11 12 13 14 15 16 17 18 19 20 21 22 23 24 25 26 27 28 29 30 31 32 33 34 35 36 37 38 39 40 41 42 43 44 45 46 47 48 49 50

242
ASUS43 KEAX 301710
RWREAX

WEATHER ROUNDUP FOR EASTERN KANSAS AND NORTHWEST MISSOURI
NATIONAL WEATHER SERVICE KANSAS CITY/PLEASANT HILL MO
1200 PM CDT FRI SEP 30 2016

KSZ040-057-103>105-MOZ028-029-037-043-301800-
...KANSAS CITY METROPOLITAN AREA...

CITY           SKY/WX    TMP DP  RH WIND       PRES   REMARKS
K.C. INTL      MOSUNNY   70  54  56 N8        30.23F
K.C. DOWNTOWN  SUNNY     71  54  54 VRB7      30.22F
LEES SUMMIT    SUNNY     69  54  58 NW8       30.22F
OLATHE - IXD   SUNNY     69  55  60 VRB7      30.24F
OLATHE - OJC   MOSUNNY   69  53  56 N7        30.23F
LAWRENCE       SUNNY     71  56  58 MISG      30.23F

$$

MOZ001>008-011>017-020>025-030>033-038>040-044>046-053-054-301800-
...NORTHERN AND CENTRAL MISSOURI...

CITY           SKY/WX    TMP DP  RH WIND       PRES   REMARKS
ST. JOSEPH     MOSUNNY   71  48  43 N12       30.24F
MOSBY          SUNNY     70  50  49 NW9       30.22F
WHITEMAN AFB   MOSUNNY   70  56  61 NW8       30.19F
CLINTON        SUNNY     70  55  60 N7        30.21F
SEDALIA        MOSUNNY   71  52  50 NW12      30.20F
WARSAW         NOT AVBL
CHILLICOTHE      N/A     69  52  54 N9        30.22F
KIRKSVILLE     PTSUNNY   67  55  65 N12       30.19F

$$

MOZ041-047>049-056>058-063>065-088>090-097-301800-
...EASTERN AND SOUTHERN MISSOURI...

CITY           SKY/WX    TMP DP  RH WIND       PRES   REMARKS
ST. LOUIS INTL PTSUNNY   68  57  68 NW14      30.12S
SPIRIT OF STL  CLOUDY    65  58  78 N7        30.11F
COLUMBIA       PTSUNNY   68  55  63 N12       30.17F
JEFFERSON CITY CLOUDY    68  55  63 NW8       30.16F
ROLLA          PTSUNNY   66  56  70 NW12      30.14F
OSAGE BEACH    PTSUNNY   69  56  62 N9        30.18F
SPRINGFIELD    MOSUNNY   70  54  56 N12       30.19F
BRANSON        MOSUNNY   68  54  60 NW7       30.19F
JOPLIN         SUNNY     70  57  63 N6        30.22F
WEST PLAINS    PTSUNNY   68  54  60 N10       30.17F

$$

IAZ060-094-KSZ022-034>040-054-083-096-NEZ052-066-093-301800-
...KANSAS...SOUTHEAST NEBRASKA AND IOWA...

CITY           SKY/WX    TMP DP  RH WIND       PRES   REMARKS
TOPEKA         SUNNY     69  55  60 N6        30.24F
MANHATTAN      SUNNY     69  54  58 CALM      30.25F
EMPORIA        SUNNY     70  52  52 N5        30.24F
CHANUTE        SUNNY     71  54  54 VRB3      30.23F
WICHITA        MOSUNNY   70  47  43 CALM      30.24F
OMAHA          MOSUNNY   69  51  52 CALM      30.28F
LINCOLN        SUNNY     68  51  54 VRB3      30.28F
FALLS CITY     SUNNY     69  49  48 NE9       30.25F
LAMONI         PTSUNNY   64  55  72 N8        30.24F
DES MOINES     CLOUDY    63  53  70 NE12      30.25F

$$





USA.gov is the U.S. government's official web portal to all federal, state and local government web resources and services.